CW3468 Weather Reports


Display with metric or nautical units.
time (UTC)temp
F
wind
direction
speed
MPH
gust
MPH
rain 1hr
in
rain 24hr
in
rain mn
in
humidity
%
barometer
mb
20260510044642 74 173 0.0 0.0 0.00 0.03 0.03 84 1012.5
20260510043617 74 173 0.0 0.0 0.00 0.03 0.03 83 1012.5
20260510042634 75 173 0.0 0.0 0.00 0.03 0.03 82 1012.5
20260510041631 75 173 0.0 0.0 0.00 0.03 0.03 82 1012.5
20260510040650 75 157 0.0 0.0 0.00 0.03 0.03 82 1012.4
20260510035627 75 174 0.0 0.0 0.00 0.03 0.03 82 1012.3
20260510034624 75 169 0.0 0.0 0.00 0.03 0.03 82 1012.3
20260510033641 76 167 0.0 0.0 0.00 0.03 0.03 83 1012.2
20260510032615 76 156 0.0 0.0 0.00 0.03 0.03 83 1012.1
20260510031653 77 156 0.0 0.0 0.00 0.03 0.03 82 1012.0
20260510030628 77 156 0.0 2.0 0.00 0.03 0.03 80 1011.9
20260510025626 78 166 0.0 2.0 0.00 0.03 0.03 80 1011.7
20260510024621 78 157 0.0 2.0 0.00 0.03 0.03 79 1011.5
20260510023617 79 128 0.0 3.0 0.00 0.03 0.03 79 1011.4
20260510022613 79 157 1.0 2.0 0.00 0.03 0.03 79 1011.3
20260510021631 79 130 1.0 2.0 0.00 0.03 0.03 77 1011.2
20260510020612 80 140 0.0 2.0 0.00 0.03 0.03 76 1011.1
20260510015629 80 126 1.0 3.0 0.00 0.03 0.03 75 1011.0
20260510014626 81 140 1.0 3.0 0.00 0.03 0.03 74 1010.9
20260510013622 81 119 0.0 2.0 0.00 0.03 0.03 73 1010.8
20260510012617 82 134 0.0 2.0 0.00 0.03 0.03 71 1010.8
20260510011633 82 126 0.0 2.0 0.00 0.03 0.03 71 1010.6
20260510010629 83 119 1.0 3.0 0.00 0.03 0.03 68 1010.6
20260510005625 83 109 1.0 4.0 0.00 0.03 0.03 67 1010.5
20260510004623 84 126 1.0 5.0 0.00 0.03 0.03 66 1010.5
20260510003619 85 128 0.0 3.0 0.00 0.03 0.03 62 1010.4
20260510002615 85 149 0.0 3.0 0.00 0.03 0.03 60 1010.3
20260510001611 86 141 0.0 3.0 0.00 0.03 0.03 58 1010.2
20260510000630 85 99 0.0 4.0 0.00 0.03 0.03 57 1010.1
20260509235626 85 72 1.0 6.0 0.00 0.03 0.03 56 1010.0
20260509234619 86 100 1.0 3.0 0.00 0.03 0.03 53 1009.9
20260509233617 86 94 1.0 2.0 0.00 0.03 0.03 49 1009.8
20260509232612 86 136 2.0 4.0 0.00 0.03 0.03 47 1009.9
20260509231629 87 119 1.0 7.0 0.00 0.03 0.03 50 1009.7
20260509230626 87 120 1.0 5.0 0.00 0.03 0.03 56 1009.8
20260509225626 87 159 1.0 4.0 0.00 0.03 0.03 54 1009.8
20260509224621 89 142 1.0 6.0 0.00 0.03 0.03 54 1009.7
20260509223619 89 106 1.0 4.0 0.00 0.03 0.03 53 1009.6
20260509222637 89 173 0.0 1.0 0.00 0.03 0.03 52 1009.6
20260509221611 88 233 0.0 2.0 0.00 0.03 0.03 55 1009.6
20260509220631 87 216 0.0 2.0 0.00 0.03 0.03 60 1009.6
20260509215627 85 177 1.0 2.0 0.00 0.03 0.03 59 1009.6
20260509214621 85 144 0.0 2.0 0.00 0.03 0.03 61 1009.7
20260509213617 85 108 1.0 4.0 0.00 0.03 0.03 61 1009.8
20260509212612 83 220 1.0 4.0 0.00 0.03 0.03 63 1010.0
20260509211650 82 200 3.0 8.0 0.00 0.03 0.03 64 1010.3
20260509210626 81 130 2.0 11.0 0.00 0.03 0.03 60 1010.5
20260509205625 79 165 5.0 13.0 0.00 0.03 0.03 62 1010.7
20260509204622 80 103 6.0 21.0 0.00 0.03 0.03 56 1010.8
20260509203617 83 112 3.0 21.0 0.00 0.03 0.03 53 1010.9
20260509202616 89 5 1.0 2.0 0.00 0.03 0.03 54 1010.7
20260509201612 89 109 0.0 2.0 0.00 0.03 0.03 53 1010.5
20260509200627 92 254 1.0 7.0 0.00 0.03 0.03 50 1010.6
20260509195624 92 234 1.0 3.0 0.00 0.03 0.03 53 1010.7
20260509194623 89 254 0.0 4.0 0.00 0.03 0.03 58 1010.7
20260509193620 88 325 1.0 3.0 0.00 0.03 0.03 56 1010.9
20260509192617 90 197 1.0 5.0 0.00 0.03 0.03 55 1011.1
20260509191615 92 265 2.0 6.0 0.00 0.03 0.03 54 1011.0
20260509190632 90 309 1.0 4.0 0.00 0.03 0.03 56 1011.2
20260509185630 89 218 1.0 3.0 0.00 0.03 0.03 60 1011.3
20260509184625 89 191 0.0 2.0 0.00 0.03 0.03 58 1011.5
20260509183622 91 181 1.0 3.0 0.00 0.03 0.03 58 1011.8
20260509182617 87 240 0.0 2.0 0.00 0.03 0.03 63 1012.0
20260509181615 88 211 2.0 5.0 0.00 0.03 0.03 65 1012.1
20260509180612 88 299 0.0 3.0 0.00 0.03 0.03 64 1012.1
20260509175650 88 257 2.0 5.0 0.00 0.03 0.03 62 1012.2
20260509174646 86 119 0.0 6.0 0.00 0.03 0.03 66 1012.4
20260509173623 88 187 1.0 4.0 0.00 0.03 0.03 68 1012.6
20260509172620 86 211 2.0 5.0 0.00 0.03 0.03 66 1012.8
20260509171617 87 111 1.0 2.0 0.00 0.03 0.03 66 1012.6
20260509170635 86 132 1.0 6.0 0.00 0.03 0.03 69 1012.7
20260509165630 86 274 1.0 4.0 0.00 0.03 0.03 68 1012.9
20260509164628 85 198 1.0 3.0 0.00 0.03 0.03 72 1012.8
20260509163624 84 194 1.0 2.0 0.00 0.03 0.03 74 1012.8
20260509162626 83 205 0.0 3.0 0.00 0.03 0.03 76 1012.8
20260509161623 83 192 0.0 3.0 0.00 0.03 0.03 77 1012.7
20260509160619 82 208 1.0 5.0 0.00 0.03 0.03 79 1012.7
20260509155615 81 203 2.0 3.0 0.00 0.03 0.03 81 1012.6
20260509154612 79 208 1.0 6.0 0.00 0.03 0.03 84 1012.8
20260509153631 78 180 1.0 5.0 0.00 0.03 0.03 91 1012.8
20260509152626 77 238 0.0 4.0 0.00 0.03 0.03 94 1013.0
20260509151622 76 198 1.0 4.0 0.00 0.03 0.03 95 1012.9
20260509150617 74 136 1.0 3.0 0.00 0.03 0.03 95 1013.1
20260509145634 73 158 1.0 4.0 0.00 0.03 0.03 95 1012.9
20260509144612 73 247 0.0 3.0 0.00 0.03 0.03 95 1012.6
20260509143630 73 211 0.0 2.0 0.00 0.03 0.03 95 1012.5
20260509142628 73 177 1.0 5.0 0.00 0.03 0.03 95 1012.4
20260509141624 72 153 0.0 2.0 0.00 0.03 0.03 95 1012.3
20260509140621 72 165 1.0 3.0 0.00 0.03 0.03 95 1012.3
20260509135619 72 137 0.0 1.0 0.00 0.03 0.03 95 1012.6
20260509134620 72 64 0.0 0.0 0.00 0.03 0.03 95 1012.6
20260509133616 72 84 0.0 0.0 0.00 0.03 0.03 95 1012.7
20260509132613 72 10 0.0 0.0 0.00 0.03 0.03 95 1012.8
20260509131631 72 311 0.0 0.0 0.00 0.03 0.03 95 1012.7
20260509130628 72 55 0.0 0.0 0.00 0.03 0.03 95 1012.7
20260509125624 72 98 0.0 2.0 0.00 0.03 0.03 95 1012.2
20260509124621 72 336 0.0 3.0 0.00 0.03 0.03 95 1012.0
20260509123618 72 360 1.0 3.0 0.00 0.03 0.03 95 1012.2
20260509122614 72 45 0.0 0.0 0.00 0.03 0.03 95 1012.1
20260509121651 72 100 0.0 0.0 0.00 0.03 0.03 95 1012.2
20260509120627 72 355 0.0 2.0 0.00 0.03 0.03 95 1012.5
20260509115623 72 25 0.0 1.0 0.00 0.03 0.03 95 1012.4
20260509114638 72 34 1.0 3.0 0.00 0.03 0.03 95 1012.2
20260509113614 72 314 1.0 3.0 0.00 0.03 0.03 95 1012.6
20260509112612 72 23 0.0 0.0 0.00 0.03 0.03 95 1013.0
20260509111629 72 333 0.0 3.0 0.00 0.03 0.03 95 1013.1
20260509110627 72 47 0.0 3.0 0.00 0.03 0.03 95 1013.1
20260509105621 72 19 0.0 2.0 0.00 0.03 0.03 95 1013.2
20260509104617 72 24 0.0 2.0 0.00 0.03 0.03 95 1013.2
20260509103616 72 34 0.0 0.0 0.00 0.03 0.03 95 1013.1
20260509102613 72 39 0.0 0.0 0.01 0.03 0.03 95 1013.0
20260509101627 72 77 0.0 0.0 0.01 0.03 0.03 95 1012.6
20260509100624 72 77 0.0 0.0 0.01 0.03 0.03 95 1012.3
20260509095622 72 98 0.0 2.0 0.02 0.03 0.03 94 1012.0
20260509094615 72 80 1.0 2.0 0.03 0.03 0.03 94 1011.8
20260509093631 72 101 0.0 0.0 0.03 0.03 0.03 94 1012.0
20260509092628 72 92 0.0 0.0 0.02 0.02 0.02 94 1012.0
20260509091626 72 82 0.0 2.0 0.02 0.02 0.02 94 1011.8
20260509090623 72 97 0.0 0.0 0.02 0.02 0.02 94 1011.7
20260509085642 72 121 0.0 2.0 0.01 0.01 0.01 94 1011.8
20260509084617 72 39 0.0 0.0 0.00 0.00 0.00 94 1012.0
20260509083614 72 39 0.0 0.0 0.00 0.00 0.00 93 1012.0
20260509082631 72 45 0.0 1.0 0.00 0.00 0.00 93 1012.1
20260509081628 72 44 0.0 0.0 0.00 0.00 0.00 93 1012.0
20260509080625 72 118 0.0 0.0 0.00 0.00 0.00 93 1012.1
20260509075621 72 113 0.0 3.0 0.00 0.00 0.00 92 1011.8
20260509074620 72 142 0.0 2.0 0.00 0.00 0.00 92 1011.9
20260509073621 72 89 0.0 2.0 0.00 0.00 0.00 92 1011.9
20260509072619 72 169 0.0 0.0 0.00 0.00 0.00 92 1012.0
20260509071616 72 157 0.0 0.0 0.00 0.00 0.00 92 1012.1
20260509070613 72 161 0.0 2.0 0.00 0.00 0.00 92 1012.2
20260509065630 73 202 0.0 2.0 0.00 0.00 0.00 92 1012.3
20260509064627 73 200 0.0 2.0 0.00 0.00 0.00 92 1012.1
20260509063644 73 185 0.0 3.0 0.00 0.00 0.00 92 1011.9
20260509062641 73 165 1.0 5.0 0.00 0.00 0.00 91 1011.7
20260509061616 73 213 0.0 3.0 0.00 0.00 0.00 91 1011.8
20260509060613 73 190 1.0 5.0 0.00 0.00 0.00 91 1011.9
20260509055629 73 130 0.0 5.0 0.00 0.00 0.00 91 1011.8
20260509054626 73 187 1.0 5.0 0.00 0.00 0.00 90 1011.7
20260509053643 73 148 1.0 3.0 0.00 0.00 0.00 91 1011.8
20260509052616 73 167 1.0 4.0 0.00 0.00 0.00 91 1011.8
20260509051634 73 205 1.0 5.0 0.00 0.00 0.00 91 1011.8
20260509050630 72 172 2.0 6.0 0.00 0.00 0.00 91 1011.5
20260509045623 72 147 1.0 2.0 0.00 0.00 0.00 91 1011.6